Simultaneous Nadir Overpasses (SNOs) Predictions

Prediction of SNOs between AQUA and NOAA-19 Satellite Orbit:

Table of predicted SNOs for the next 14.0 days since TLE Epoch: 12/5/2014
Index Date (AQUA) Time (AQUA) Lat,Lon (AQUA) SZA (AQUA ) Date (NOAA-19) Time (NOAA-19) Lat,Lon (NOAA-19) SZA (NOAA-19 ) Distance(km) Time Diff (sec)
1 12/06/2014 11:56:37 79.10, -23.49 102.30 12/06/2014 11:55:43 79.10, -23.56 102.33 1.53 54
2 12/06/2014 12:45:55 -78.78, 146.06 78.13 12/06/2014 12:46:40 -78.77, 146.05 78.14 0.23 45
3 12/08/2014 17:30:18 -78.91, 74.20 77.69 12/08/2014 17:30:20 -78.90, 74.27 77.71 1.90 2
4 12/10/2014 22:14:42 -79.06, 2.22 77.27 12/10/2014 22:14:02 -79.07, 2.17 77.25 1.21 40
5 12/10/2014 23:04:02 78.78, 171.51 102.36 12/10/2014 23:04:50 78.77, 171.60 102.34 2.01 48
6 12/13/2014 03:48:25 78.91, 99.67 102.72 12/13/2014 03:48:31 78.91, 99.75 102.71 1.81 6
7 12/15/2014 08:32:49 79.10, 27.45 103.13 12/15/2014 08:32:14 79.12, 27.33 103.16 2.86 35
8 12/15/2014 09:22:07 -78.77,-162.95 77.32 12/15/2014 09:23:10 -78.77,-162.89 77.34 1.41 63
9 12/17/2014 13:18:59 81.81, -82.26 109.25 12/17/2014 13:17:46 81.07, -82.38 108.92 82.41 73




NCC Satellite Simultaneous Nadir Overpasses (SNOs) Prediction Service
